カタログに戻る

WESTAR 5

運用中通信GEO
NORAD 13269·PAYLOAD·🇺🇸 United States

打ち上げ Jun 9, 1982 から Cape Canaveral Space Force Station

Loading…

TLE

最新Source: Space-Track

元期: Sep 10, 2026, 21:26 UTC

1 13269U 82058A   26253.89350361 -.00000074  00000-0  00000+0 0  9998
2 13269  13.0492 336.6184 0018646 274.2564  80.9139  0.99216982120388

AllMySatでWESTAR 5をリアルタイム追跡

Download on the App Store